| time (UTC) | temp F | wind direction | speed MPH | gust MPH | rain 1hr in | rain 24hr in | rain mn in | humidity % | barometer mb |
| 20260505102039 | 58 | 347 | 0.0 | 3.0 | 0.05 | 0.32 | 0.21 | ||
| 20260505101039 | 58 | 333 | 0.0 | 4.0 | 0.05 | 0.32 | 0.21 | ||
| 20260505100104 | 58 | 357 | 2.0 | 6.0 | 0.05 | 0.32 | 0.21 | ||
| 20260505100009 | 58 | 357 | 2.0 | 6.0 | 0.05 | 0.32 | 0.21 | ||
| 20260505094939 | 59 | 77 | 3.0 | 4.0 | 0.03 | 0.32 | 0.19 | ||
| 20260505093939 | 59 | 232 | 0.0 | 0.0 | 0.00 | 0.32 | 0.16 | ||
| 20260505092909 | 59 | 232 | 0.0 | 5.0 | 0.00 | 0.32 | 0.16 | ||
| 20260505091839 | 59 | 190 | 2.0 | 4.0 | 0.00 | 0.32 | 0.16 | ||
| 20260505090839 | 59 | 132 | 1.0 | 7.0 | 0.00 | 0.32 | 0.16 | ||
| 20260505085809 | 58 | 222 | 5.0 | 7.0 | 0.01 | 0.32 | 0.16 | ||
| 20260505084809 | 59 | 211 | 2.0 | 3.0 | 0.01 | 0.32 | 0.16 | ||
| 20260505083739 | 59 | 169 | 2.0 | 4.0 | 0.16 | 0.32 | 0.16 | ||
| 20260505082709 | 60 | 236 | 2.0 | 5.0 | 0.11 | 0.32 | 0.16 | ||
| 20260505081639 | 60 | 229 | 2.0 | 5.0 | 0.16 | 0.32 | 0.16 | ||
| 20260505080639 | 60 | 231 | 4.0 | 5.0 | 0.16 | 0.32 | 0.16 | ||
| 20260505075839 | 60 | 285 | 5.0 | 10.0 | 0.15 | 0.32 | 0.15 | ||
| 20260505075609 | 60 | 285 | 5.0 | 10.0 | 0.15 | 0.32 | 0.15 | ||
| 20260505074609 | 61 | 302 | 7.0 | 23.0 | 0.15 | 0.32 | 0.15 | ||
| 20260505073539 | 62 | 278 | 10.0 | 16.0 | 0.10 | 0.32 | 0.10 | ||
| 20260505072509 | 64 | 322 | 6.0 | 10.0 | 0.03 | 0.32 | 0.03 | ||
| 20260505071653 | 65 | 354 | 3.0 | 11.0 | 0.00 | 0.32 | 0.00 | ||
| 20260505071509 | 65 | 354 | 3.0 | 11.0 | 0.00 | 0.32 | 0.00 | ||
| 20260505070439 | 66 | 14 | 6.0 | 10.0 | 0.00 | 0.32 | 0.00 | ||
| 20260505065439 | 66 | 311 | 3.0 | 10.0 | 0.00 | 0.32 | 0.00 | ||
| 20260505064409 | 67 | 37 | 5.0 | 9.0 | 0.00 | 0.32 | 0.00 | ||
| 20260505063409 | 67 | 311 | 6.0 | 15.0 | 0.00 | 0.32 | 0.00 | ||
| 20260505062409 | 67 | 264 | 8.0 | 15.0 | 0.00 | 0.32 | 0.00 | ||
| 20260505061409 | 67 | 238 | 9.0 | 17.0 | 0.00 | 0.32 | 0.00 | ||
| 20260505060409 | 67 | 232 | 11.0 | 17.0 | 0.00 | 0.32 | 0.00 | ||
| 20260505055409 | 67 | 238 | 9.0 | 19.0 | 0.00 | 0.32 | 0.00 | ||
| 20260505054339 | 67 | 248 | 9.0 | 17.0 | 0.00 | 0.32 | 0.00 | ||
| 20260505053339 | 67 | 229 | 9.0 | 17.0 | 0.00 | 0.32 | 0.00 | ||
| 20260505052309 | 67 | 270 | 13.0 | 20.0 | 0.00 | 0.32 | 0.00 | ||
| 20260505051239 | 67 | 231 | 9.0 | 16.0 | 0.00 | 0.32 | 0.00 | ||
| 20260505050209 | 67 | 255 | 9.0 | 18.0 | 0.00 | 0.32 | 0.00 | ||
| 20260505041109 | 68 | 229 | 9.0 | 23.0 | 0.00 | 0.07 | 0.32 | ||
| 20260505040039 | 68 | 236 | 9.0 | 21.0 | 0.00 | 0.07 | 0.32 | ||
| 20260505035009 | 68 | 240 | 10.0 | 17.0 | 0.00 | 0.07 | 0.32 | ||
| 20260505034009 | 69 | 284 | 10.0 | 19.0 | 0.00 | 0.07 | 0.32 | ||
| 20260505032939 | 69 | 235 | 13.0 | 20.0 | 0.00 | 0.07 | 0.32 | ||
| 20260505031909 | 69 | 252 | 13.0 | 19.0 | 0.00 | 0.07 | 0.32 | ||
| 20260505030909 | 69 | 233 | 13.0 | 21.0 | 0.00 | 0.07 | 0.32 | ||
| 20260505025839 | 69 | 248 | 9.0 | 20.0 | 0.00 | 0.07 | 0.32 | ||
| 20260505024839 | 69 | 259 | 10.0 | 19.0 | 0.00 | 0.07 | 0.32 | ||
| 20260505023809 | 69 | 250 | 9.0 | 18.0 | 0.00 | 0.07 | 0.32 | ||
| 20260505022739 | 68 | 236 | 9.0 | 17.0 | 0.01 | 0.07 | 0.32 | ||
| 20260505021739 | 68 | 246 | 6.0 | 13.0 | 0.01 | 0.07 | 0.32 | ||
| 20260505020709 | 68 | 250 | 8.0 | 14.0 | 0.01 | 0.07 | 0.32 | ||
| 20260505015709 | 68 | 177 | 6.0 | 15.0 | 0.01 | 0.07 | 0.32 | ||
| 20260505014709 | 68 | 135 | 7.0 | 13.0 | 0.01 | 0.07 | 0.32 | ||
| 20260505013639 | 68 | 242 | 10.0 | 18.0 | 0.01 | 0.07 | 0.32 | ||
| 20260505012639 | 70 | 235 | 9.0 | 16.0 | 0.00 | 0.07 | 0.31 | ||
| 20260505011609 | 69 | 245 | 10.0 | 20.0 | 0.00 | 0.07 | 0.31 | ||
| 20260505010609 | 69 | 181 | 13.0 | 28.0 | 0.00 | 0.07 | 0.31 | ||
| 20260505005539 | 71 | 219 | 11.0 | 18.0 | 0.00 | 0.07 | 0.31 | ||
| 20260505004509 | 71 | 233 | 8.0 | 17.0 | 0.00 | 0.07 | 0.31 | ||
| 20260505003509 | 72 | 259 | 7.0 | 19.0 | 0.00 | 0.07 | 0.31 | ||
| 20260505002509 | 73 | 163 | 9.0 | 24.0 | 0.00 | 0.07 | 0.31 | ||
| 20260505001509 | 73 | 253 | 12.0 | 25.0 | 0.00 | 0.07 | 0.31 | ||
| 20260505000509 | 73 | 240 | 11.0 | 21.0 | 0.00 | 0.07 | 0.31 | ||
| 20260504235438 | 73 | 218 | 13.0 | 21.0 | 0.00 | 0.07 | 0.31 | ||
| 20260504234439 | 74 | 260 | 12.0 | 26.0 | 0.00 | 0.07 | 0.31 | ||
| 20260504233409 | 74 | 221 | 11.0 | 22.0 | 0.00 | 0.07 | 0.31 | ||
| 20260504232408 | 75 | 214 | 15.0 | 25.0 | 0.00 | 0.07 | 0.31 | ||
| 20260504231408 | 78 | 232 | 16.0 | 23.0 | 0.00 | 0.07 | 0.31 | ||
| 20260504230338 | 79 | 235 | 12.0 | 20.0 | 0.00 | 0.07 | 0.31 | ||
| 20260504225338 | 78 | 242 | 12.0 | 25.0 | 0.00 | 0.07 | 0.31 | ||
| 20260504224338 | 78 | 195 | 14.0 | 21.0 | 0.00 | 0.07 | 0.31 | ||
| 20260504223308 | 78 | 226 | 13.0 | 20.0 | 0.00 | 0.07 | 0.31 | ||
| 20260504222238 | 78 | 193 | 8.0 | 17.0 | 0.00 | 0.07 | 0.31 | ||
| 20260504221208 | 78 | 238 | 11.0 | 20.0 | 0.00 | 0.07 | 0.31 | ||
| 20260504220208 | 76 | 240 | 11.0 | 19.0 | 0.00 | 0.07 | 0.31 | ||
| 20260504215138 | 75 | 215 | 11.0 | 20.0 | 0.00 | 0.07 | 0.31 | ||
| 20260504214138 | 76 | 228 | 13.0 | 23.0 | 0.00 | 0.07 | 0.31 | ||
| 20260504213138 | 75 | 217 | 12.0 | 25.0 | 0.00 | 0.07 | 0.31 | ||
| 20260504212108 | 75 | 224 | 13.0 | 22.0 | 0.00 | 0.07 | 0.31 | ||
| 20260504211109 | 75 | 232 | 12.0 | 25.0 | 0.00 | 0.07 | 0.31 | ||
| 20260504210108 | 74 | 256 | 10.0 | 18.0 | 0.00 | 0.07 | 0.31 | ||
| 20260504205038 | 75 | 240 | 8.0 | 17.0 | 0.00 | 0.07 | 0.31 | ||
| 20260504204008 | 73 | 229 | 6.0 | 17.0 | 0.00 | 0.07 | 0.31 | ||
| 20260504203008 | 72 | 222 | 9.0 | 17.0 | 0.00 | 0.07 | 0.31 | ||
| 20260504201938 | 72 | 229 | 9.0 | 16.0 | 0.00 | 0.07 | 0.31 | ||
| 20260504200938 | 72 | 219 | 11.0 | 19.0 | 0.00 | 0.07 | 0.31 | ||
| 20260504195908 | 73 | 224 | 10.0 | 17.0 | 0.00 | 0.07 | 0.31 | ||
| 20260504194838 | 71 | 249 | 9.0 | 16.0 | 0.00 | 0.07 | 0.31 | ||
| 20260504193838 | 69 | 233 | 11.0 | 20.0 | 0.00 | 0.07 | 0.31 | ||
| 20260504192817 | 69 | 232 | 11.0 | 0.0 | 0.00 | 0.07 | 0.31 | ||
| 20260504192808 | 69 | 232 | 11.0 | 19.0 | 0.00 | 0.07 | 0.31 | ||
| 20260504191808 | 68 | 236 | 10.0 | 21.0 | 0.01 | 0.07 | 0.31 | ||
| 20260504190738 | 67 | 221 | 13.0 | 23.0 | 0.01 | 0.07 | 0.31 | ||
| 20260504185708 | 67 | 201 | 11.0 | 22.0 | 0.01 | 0.07 | 0.31 | ||
| 20260504184708 | 68 | 245 | 11.0 | 22.0 | 0.01 | 0.07 | 0.31 | ||
| 20260504183638 | 68 | 280 | 13.0 | 28.0 | 0.01 | 0.07 | 0.31 | ||
| 20260504182638 | 68 | 271 | 10.0 | 15.0 | 0.01 | 0.07 | 0.31 | ||
| 20260504181638 | 69 | 252 | 6.0 | 16.0 | 0.00 | 0.07 | 0.30 | ||
| 20260504180638 | 70 | 236 | 7.0 | 16.0 | 0.00 | 0.07 | 0.30 | ||
| 20260504175638 | 71 | 212 | 9.0 | 18.0 | 0.00 | 0.07 | 0.30 | ||
| 20260504174608 | 71 | 214 | 10.0 | 21.0 | 0.00 | 0.07 | 0.30 | ||
| 20260504173608 | 71 | 232 | 8.0 | 21.0 | 0.00 | 0.07 | 0.30 | ||
| 20260504172538 | 73 | 266 | 9.0 | 18.0 | 0.00 | 0.07 | 0.30 | ||
| 20260504171538 | 71 | 217 | 7.0 | 18.0 | 0.00 | 0.07 | 0.30 | ||
| 20260504170508 | 71 | 229 | 7.0 | 21.0 | 0.00 | 0.07 | 0.30 | ||
| 20260504160238 | 72 | 228 | 10.0 | 17.0 | 0.00 | 0.07 | 0.30 | ||
| 20260504151038 | 71 | 231 | 7.0 | 17.0 | 0.00 | 0.07 | 0.30 | ||
| 20260504140908 | 65 | 270 | 7.0 | 11.0 | 0.00 | 0.07 | 0.30 | ||
| 20260504130738 | 60 | 246 | 7.0 | 16.0 | 0.00 | 0.07 | 0.30 | ||
| 20260504110508 | 57 | 211 | 5.0 | 9.0 | 0.00 | 0.07 | 0.30 |